Theta_e
328 328 328 328 329 329 329 329 329 329 329 328 329 330 330 331 331 331 331 329 330 330 330 330 330 329 328 328 328 327 327 322 319 320 318 322 323 328 329 330 333 334 329 315 311 309 306 307 307 309 308 311 313 309 312 311 310 312 304 302 300 303 301 305 302 302 304 303 303 304 307 306 303 305 306 307 307 307 308 307 312 313 316 319 318 328 334 334
326 327 328 328 328 328 329 329 329 329 329 328 328 329 330 330 330 331 330 329 330 329 329 330 329 329 328 328 327 327 322 320 318 319 319 325 327 327 328 332 331 334 324 312 309 307 304 305 306 306 305 305 314 307 310 309 310 306 304 302 300 303 304 305 306 305 303 303 305 305 307 307 305 306 306 304 304 305 305 306 309 310 313 316 321 328 332 331
326 327 327 328 328 328 328 328 328 328 328 328 328 329 329 329 329 330 328 328 329 329 329 329 328 328 328 328 327 324 320 313 315 315 320 332 331 328 330 331 331 332 315 309 310 308 306 306 307 305 304 304 308 306 308 307 307 307 306 300 302 307 304 304 305 304 304 307 305 305 306 307 307 306 307 304 304 305 303 304 306 307 311 313 319 326 329 329
326 326 327 327 327 327 328 327 327 327 328 328 328 328 329 328 329 329 328 328 328 329 329 328 328 328 328 327 325 322 317 314 310 317 322 333 332 332 331 330 331 332 318 312 308 309 309 308 307 305 304 303 306 309 304 306 304 306 303 302 304 306 303 302 304 302 302 305 306 306 307 306 307 307 306 305 303 303 304 307 307 306 310 313 317 323 326 327
325 326 326 327 327 327 327 327 327 327 327 327 328 328 328 328 328 328 328 328 328 328 328 328 327 327 327 326 323 323 316 308 311 318 317 332 334 331 330 329 332 328 318 310 306 307 306 307 305 304 304 301 305 305 305 307 307 306 302 304 304 305 303 302 303 301 302 302 306 306 303 304 307 306 306 305 302 302 305 307 309 309 311 315 315 323 327 327
325 325 326 326 326 326 326 326 326 326 327 327 327 328 328 327 328 328 328 328 327 328 328 327 327 327 327 325 322 319 314 297 306 314 328 331 330 331 329 329 333 324 315 309 307 306 305 303 304 301 301 302 302 301 304 306 307 301 303 303 303 302 303 302 302 301 301 303 304 303 305 306 304 304 306 306 304 305 307 308 309 313 312 319 318 324 326 327
325 325 325 325 326 326 326 325 326 326 326 326 327 327 327 327 327 327 327 327 327 327 327 327 328 328 326 323 320 314 312 314 308 321 330 335 332 329 329 331 332 317 311 307 306 305 304 303 301 300 301 301 303 302 305 304 305 304 302 303 302 302 302 301 302 300 301 303 303 306 308 303 304 301 306 304 307 307 307 308 307 313 322 320 319 323 324 326
324 324 324 324 324 325 325 325 325 325 325 326 326 327 327 327 327 326 326 326 326 327 327 327 327 327 324 319 310 307 309 310 311 327 333 337 336 329 330 325 318 312 309 306 306 305 305 302 300 302 300 299 302 303 304 304 304 302 302 303 301 302 300 301 301 301 301 301 303 304 303 303 305 303 303 303 306 308 312 312 311 311 317 319 319 319 323 325
324 324 323 323 323 323 324 325 325 325 325 326 326 326 326 326 326 326 325 326 326 326 326 326 326 325 324 314 312 308 307 317 319 330 331 329 332 330 323 316 312 309 308 307 307 307 305 302 302 303 298 298 302 301 303 302 299 304 303 303 301 300 300 300 300 301 301 302 302 301 302 303 302 302 302 305 306 308 311 314 312 314 313 315 317 319 321 322
324 324 323 322 322 323 323 324 324 325 325 325 326 326 326 326 325 325 325 326 326 326 326 326 326 324 319 313 314 305 311 318 327 329 323 316 318 322 319 315 309 307 306 307 307 306 305 304 303 305 304 301 302 300 302 303 302 306 303 303 302 300 300 300 301 300 301 302 302 301 302 301 301 302 299 306 307 307 308 309 312 312 312 315 316 318 321 322
324 323 323 322 322 322 324 324 324 324 325 325 325 325 325 325 324 324 325 325 325 325 326 326 325 323 313 315 310 306 314 319 326 324 316 315 316 316 313 309 309 308 307 307 306 307 307 306 308 305 303 300 301 300 300 301 303 304 303 302 301 301 301 301 301 300 302 300 301 302 301 301 301 301 301 304 303 306 305 308 310 310 311 314 317 318 322 323
324 323 323 322 322 323 324 323 323 324 324 324 324 324 324 324 324 324 324 324 324 325 325 325 324 319 312 312 310 308 312 317 323 322 313 312 310 310 310 310 309 309 308 305 305 309 308 307 307 304 297 304 298 301 300 301 303 303 304 299 300 301 300 301 300 301 302 301 301 303 300 298 299 298 303 303 304 304 306 307 308 308 310 314 316 319 321 323
323 323 323 322 322 322 323 323 323 323 323 323 323 323 323 323 323 323 324 323 324 324 324 325 324 320 309 306 311 310 315 317 319 317 311 311 309 308 309 313 310 310 310 307 305 310 309 307 307 303 304 301 301 297 301 304 301 302 303 301 298 299 299 301 301 302 301 301 302 302 293 297 299 302 304 303 305 304 304 305 307 308 309 312 315 318 319 321
322 322 322 322 322 322 322 323 323 323 323 323 323 322 322 322 323 323 323 322 323 323 324 324 325 317 309 308 305 310 314 317 317 314 309 311 309 308 307 310 310 309 313 309 308 309 308 307 307 305 305 302 299 301 301 300 301 298 300 301 298 296 296 300 301 300 300 300 300 301 294 298 302 303 304 303 305 304 303 304 305 307 308 311 315 316 317 319
322 321 321 321 321 321 321 322 322 322 323 322 322 321 321 321 321 322 322 321 322 323 323 324 322 310 303 309 308 313 320 315 311 311 311 308 307 305 305 308 307 307 308 310 307 306 307 307 306 301 300 302 303 301 298 298 299 300 296 293 298 296 298 299 302 301 299 299 302 299 295 298 301 303 302 303 303 304 303 304 304 306 307 308 311 314 316 318
322 321 321 321 321 321 321 321 321 322 321 321 321 320 320 320 320 321 321 321 321 322 322 316 315 313 305 304 304 319 312 308 309 313 311 311 309 305 306 306 306 306 306 304 306 305 307 307 302 301 300 301 299 298 297 296 296 299 296 295 294 296 296 297 299 302 301 300 300 299 296 300 299 300 301 302 303 302 302 304 305 305 307 308 309 310 312 314
321 321 320 320 320 320 320 320 321 320 320 320 320 319 319 320 320 320 320 321 321 321 318 307 311 310 300 305 311 306 304 308 311 311 310 310 309 307 306 306 304 303 305 305 306 307 306 303 301 301 302 298 299 299 294 292 292 294 297 295 298 295 296 295 298 301 302 301 296 298 296 298 301 301 300 302 303 302 302 303 304 305 306 307 309 309 310 311
321 321 320 320 320 320 320 320 320 320 319 319 318 318 317 319 320 319 319 319 320 319 314 313 313 304 301 303 300 302 308 308 309 311 310 309 309 308 307 303 303 303 304 302 304 302 304 300 301 296 298 297 297 297 292 289 292 292 293 294 295 297 298 297 296 299 299 299 299 298 296 298 301 302 301 300 303 303 302 303 304 304 305 306 306 307 308 309
321 320 320 320 320 319 320 320 319 318 318 318 319 320 320 320 319 317 313 313 309 303 299 301 300 295 298 300 306 307 308 310 312 310 306 307 308 307 306 306 305 302 300 298 299 301 301 301 300 296 293 294 295 296 295 296 297 296 295 295 295 294 294 295 296 297 299 297 296 298 296 298 300 302 303 301 302 302 302 304 304 304 305 306 306 306 307 308
320 320 320 320 319 319 319 319 319 318 318 316 315 314 312 307 306 304 310 310 303 303 304 304 304 302 300 303 304 308 310 311 305 308 309 308 306 305 304 305 305 304 298 295 297 299 303 295 293 293 295 296 297 298 298 298 298 298 297 296 294 295 296 295 296 297 297 297 297 298 299 299 300 301 303 302 302 302 302 302 303 304 304 304 305 306 307 307
319 319 319 319 319 319 319 319 319 318 318 315 313 307 299 300 297 295 302 305 306 305 301 304 304 302 301 305 306 305 302 303 307 306 308 310 308 305 300 302 299 297 298 300 298 299 298 294 294 296 297 298 298 299 298 297 297 297 296 296 295 297 295 297 296 297 298 296 297 299 298 299 300 302 303 304 302 301 301 302 303 303 304 305 306 306 307 308
319 319 319 319 319 319 319 319 319 317 317 315 311 305 305 307 309 312 306 298 302 303 304 304 305 303 306 307 308 308 306 300 301 305 308 307 305 301 298 300 297 295 298 298 297 295 293 291 296 298 299 299 298 298 297 296 295 296 295 295 294 295 297 294 296 297 298 295 296 298 296 297 299 301 303 303 303 303 304 304 304 304 305 305 306 307 307 309
319 319 319 318 318 319 319 318 317 317 313 311 308 307 305 311 313 313 308 300 296 303 303 302 301 302 303 307 308 307 301 298 297 303 304 306 303 302 300 298 297 297 297 297 292 293 290 293 297 299 299 297 296 297 297 296 296 295 294 293 292 296 293 291 294 297 295 295 297 297 295 298 300 302 302 304 303 304 305 305 305 305 304 305 306 307 308 308
318 318 318 318 318 318 319 318 317 314 311 310 309 309 312 313 316 312 304 295 293 298 302 302 303 303 302 301 307 305 301 300 302 300 307 305 300 303 300 299 297 297 295 296 295 293 292 294 293 297 297 297 295 296 295 294 293 297 297 295 294 295 295 296 294 295 295 296 295 296 295 295 298 298 300 303 305 304 305 306 306 307 309 309 313 316 314 309
318 318 318 318 317 318 317 317 311 309 311 311 309 313 313 314 313 311 302 296 296 295 303 302 306 306 305 311 310 302 303 303 303 305 306 305 302 300 299 302 299 295 296 296 296 294 294 291 294 293 295 296 295 294 295 296 292 294 298 297 296 297 295 294 295 293 293 293 297 295 288 290 297 298 298 301 301 301 304 303 304 305 306 306 306 307 310 312
317 317 317 317 318 318 317 309 308 311 309 306 309 314 314 314 310 310 302 292 287 294 299 293 306 299 312 303 307 305 303 297 305 306 306 305 307 302 300 298 298 294 296 296 295 296 293 289 292 293 294 296 295 294 297 297 293 292 294 299 298 296 296 296 294 294 289 288 295 296 288 287 297 297 299 301 301 301 302 302 303 304 305 306 306 307 307 308
317 317 317 317 317 317 309 303 312 310 303 306 312 314 313 313 314 307 297 288 285 295 291 300 300 301 312 305 304 304 289 294 303 304 304 305 301 303 298 296 296 299 300 299 294 291 291 291 292 295 294 296 295 292 296 297 294 291 296 300 298 297 297 296 296 295 293 295 294 293 295 288 289 296 301 300 298 299 300 301 303 303 304 305 306 307 308 308
317 317 317 317 317 315 310 311 308 304 304 311 314 314 312 312 312 306 296 278 280 298 292 294 299 310 308 305 306 298 300 303 296 300 304 303 301 300 299 297 295 295 296 296 287 296 294 291 294 292 295 294 293 295 300 299 295 295 296 300 298 297 298 298 296 294 296 293 289 292 298 288 288 294 299 299 296 298 299 300 302 303 304 305 306 306 308 308
317 317 316 316 317 316 315 311 308 304 310 314 314 314 313 313 307 297 289 278 295 293 310 294 308 302 303 305 302 301 299 302 295 301 303 302 302 300 296 298 298 297 297 296 292 293 294 294 294 295 294 292 296 292 296 299 294 296 298 299 299 300 300 298 295 295 293 289 285 291 295 287 288 295 297 298 297 297 299 301 302 303 305 306 306 306 306 306
317 317 316 316 315 313 312 312 308 311 314 315 314 313 312 308 298 289 283 277 297 287 297 298 297 295 300 296 297 300 298 298 300 300 301 299 300 301 297 303 298 295 294 296 296 294 294 294 293 295 293 295 292 293 295 295 298 299 299 298 296 296 296 295 296 294 289 285 287 294 295 292 285 294 296 296 297 298 299 301 303 304 305 305 306 307 308 306
316 316 316 316 309 311 310 305 309 314 312 314 312 310 307 300 289 285 278 288 296 294 297 294 293 299 295 294 292 297 298 299 298 299 296 300 296 299 298 297 301 297 295 296 295 295 294 293 296 294 293 294 297 294 296 296 299 300 297 294 295 292 293 291 290 292 285 283 289 288 292 292 284 290 297 300 299 299 300 300 301 301 303 304 305 304 304 305
316 316 316 313 313 314 306 303 311 314 312 312 310 305 297 286 291 282 281 298 287 290 292 291 296 295 294 297 296 294 294 297 298 297 294 294 294 293 294 291 294 287 287 289 289 295 293 293 295 295 295 294 297 294 293 295 295 297 295 293 287 286 286 283 287 282 283 283 287 288 290 288 288 293 297 298 300 300 299 299 300 302 303 304 304 305 304 305
316 315 315 315 314 311 312 314 314 313 312 311 307 302 292 285 278 287 288 289 287 294 291 298 294 295 295 294 293 295 299 293 298 297 298 296 294 295 297 296 297 294 285 291 290 289 291 295 294 296 296 295 298 291 288 288 292 293 291 290 286 283 282 280 283 286 286 286 287 288 292 285 292 295 299 298 301 301 301 301 303 303 302 303 304 306 303 307
315 315 312 313 312 313 313 312 312 313 309 309 302 295 291 283 282 294 291 290 292 296 297 294 295 295 294 291 294 296 292 297 296 296 297 294 294 291 294 296 297 295 296 291 288 288 284 284 290 293 290 298 295 297 294 293 292 292 299 293 289 287 284 280 283 281 283 285 285 289 286 285 286 291 299 300 301 299 300 299 301 302 302 302 303 303 304 304
315 314 313 312 312 313 312 313 312 313 310 305 296 291 284 283 289 288 290 291 293 295 293 297 294 293 291 293 296 297 297 292 297 296 295 293 291 292 292 293 297 297 298 289 293 290 288 289 292 294 294 294 295 297 295 298 293 296 297 298 291 289 294 285 286 286 286 284 283 283 285 292 293 300 301 301 301 300 299 300 299 300 301 302 302 304 304 305
313 311 311 308 309 311 312 313 313 312 307 300 291 287 285 289 287 294 292 296 295 293 293 295 295 291 290 291 296 294 300 295 295 295 294 295 295 293 296 296 295 297 294 289 292 286 289 287 292 295 293 292 294 293 294 296 286 292 293 288 291 296 293 285 284 285 283 285 284 289 288 292 297 297 299 300 299 298 298 298 298 299 301 303 303 305 305 306
308 309 306 308 309 311 312 312 312 310 305 297 290 286 292 294 297 297 296 293 294 296 292 287 289 289 288 288 291 292 294 298 295 294 290 296 292 296 295 296 299 297 298 296 290 300 288 288 291 293 291 292 293 291 294 295 294 292 285 292 296 298 297 289 284 285 283 281 284 289 286 288 290 287 299 299 298 299 299 298 298 300 301 301 303 306 308 308
307 306 307 307 310 311 312 312 310 307 302 296 289 291 297 294 297 297 297 296 296 295 292 291 291 295 289 290 289 292 295 292 292 294 291 294 290 300 296 295 298 298 298 301 294 294 297 286 289 288 291 293 293 295 294 294 294 293 292 300 291 285 285 288 286 280 281 280 282 286 287 288 290 291 295 295 295 297 298 299 298 298 300 301 302 306 308 309
307 305 298 307 311 311 311 312 308 303 297 291 289 289 297 297 298 297 298 297 298 295 292 293 291 293 294 290 291 293 294 288 293 292 290 292 288 297 296 298 296 298 298 298 294 296 298 288 286 292 292 293 294 293 286 289 296 296 295 293 295 290 288 286 286 287 286 282 281 283 285 284 294 293 296 296 297 298 298 298 298 299 300 301 303 306 307 306
303 300 298 309 310 312 311 309 304 299 294 287 290 292 299 294 296 299 298 298 295 295 294 294 295 292 293 293 293 290 294 293 292 292 293 294 292 298 296 300 296 297 298 298 297 299 290 293 285 288 293 292 286 290 289 291 287 288 290 288 291 291 291 290 292 287 285 283 283 283 282 287 295 298 297 297 298 299 298 298 301 302 302 303 305 307 308 308
306 301 298 308 310 312 309 304 297 293 291 294 296 295 297 295 295 298 300 304 300 299 296 296 295 292 294 292 291 295 292 292 293 291 293 294 293 288 297 298 300 296 299 298 296 297 289 288 285 286 286 286 290 292 291 292 296 291 291 289 290 288 286 284 282 289 285 285 283 283 282 289 297 296 298 298 299 297 298 297 299 300 300 301 304 306 309 309
301 293 295 307 310 310 303 294 294 297 294 291 291 296 295 298 296 297 299 301 301 296 300 299 298 296 295 294 294 294 293 292 293 293 294 292 295 295 298 301 300 300 295 291 292 299 296 295 290 285 288 289 292 292 292 292 290 292 291 291 296 292 291 287 282 284 285 285 286 286 283 286 298 297 297 297 297 296 296 295 296 297 298 299 301 304 305 309
300 296 305 307 310 307 299 293 295 294 292 296 299 298 298 297 296 299 297 298 297 300 297 298 297 296 297 296 296 294 294 292 294 292 295 295 296 297 299 299 301 298 298 294 296 293 294 289 287 287 289 290 291 292 291 291 292 292 293 293 292 290 291 290 289 290 286 286 284 285 282 287 298 298 294 295 296 296 295 294 296 296 298 298 300 302 303 303
297 296 297 306 310 308 297 288 288 291 292 295 297 296 299 297 297 295 296 297 296 296 295 296 297 298 296 300 297 293 296 288 295 294 293 297 295 298 298 299 299 297 296 294 291 295 288 289 290 285 284 285 287 290 290 292 292 290 290 292 293 296 296 291 289 289 286 287 287 285 281 287 300 293 296 294 296 296 296 297 295 296 299 301 300 302 303 305
297 299 298 301 306 305 294 296 293 291 292 289 293 291 293 294 300 299 297 296 299 297 297 295 297 298 297 298 297 297 297 294 289 297 297 297 296 296 299 299 299 297 298 302 297 299 292 290 289 283 280 278 277 279 282 284 287 291 293 295 294 293 292 289 286 287 284 288 287 285 286 292 295 293 294 296 296 296 297 297 296 297 298 299 302 302 303 305
291 285 292 296 300 299 300 299 298 295 292 290 289 292 294 292 294 297 301 298 301 299 299 299 299 298 296 296 294 294 294 297 295 292 294 294 294 294 299 300 298 300 298 297 299 298 290 292 290 289 286 285 287 290 296 295 291 287 289 290 292 293 294 292 290 287 284 288 286 288 290 291 293 293 293 296 295 296 296 296 297 298 298 299 302 304 305 305
291 287 287 286 295 296 294 299 297 297 291 295 288 292 289 292 294 294 300 295 297 298 298 297 297 294 294 295 294 294 295 295 295 296 294 295 296 295 297 300 299 298 294 296 298 296 291 289 291 292 291 292 293 294 295 295 290 291 289 289 291 290 290 288 287 286 290 287 284 291 292 289 291 295 295 296 297 297 298 298 298 299 302 301 302 304 300 302
285 288 290 294 289 287 289 291 297 295 296 295 292 295 291 291 291 289 295 297 299 300 294 295 297 297 296 294 295 290 293 294 294 291 296 296 293 294 292 295 297 296 296 298 301 296 290 287 292 291 291 293 294 295 296 295 294 293 292 291 289 291 289 286 287 291 291 287 285 291 293 290 292 295 297 297 298 299 299 299 299 301 301 302 302 302 302 302
288 286 290 295 289 291 294 296 297 296 294 294 293 293 291 291 290 293 293 293 296 294 299 288 293 296 296 297 296 292 293 288 288 294 291 291 291 291 290 292 294 297 297 296 297 296 292 289 293 292 290 292 293 295 296 294 292 292 293 293 294 292 290 290 290 292 291 291 293 293 293 294 296 297 298 299 301 302 298 298 298 299 300 301 300 301 301 302
285 285 286 293 293 292 295 295 296 295 292 293 291 292 293 292 290 295 296 294 288 292 299 295 294 296 297 297 297 293 295 295 294 290 295 293 289 294 291 293 291 293 295 294 295 294 294 289 293 289 288 287 291 291 291 292 292 288 291 293 294 293 292 292 292 292 293 293 294 294 293 292 297 300 300 302 299 298 298 296 297 298 300 300 300 300 300 300
289 291 292 289 287 290 294 295 294 293 291 292 291 293 293 293 292 296 295 299 295 293 296 294 296 297 298 298 297 296 300 298 299 297 297 296 290 296 292 293 295 288 291 289 292 292 293 288 291 289 286 286 289 288 287 287 287 287 288 292 292 291 289 291 289 293 291 290 292 292 290 291 297 300 300 300 297 297 297 298 298 299 299 299 299 299 300 301
294 297 296 292 287 291 290 293 295 293 288 292 293 293 293 293 296 297 292 297 297 301 298 298 298 297 297 297 295 298 302 302 303 303 301 302 302 300 299 295 293 290 288 289 293 291 291 289 287 288 285 285 288 288 286 285 285 283 284 289 293 293 293 293 294 294 294 294 290 287 289 296 297 299 298 298 297 296 297 298 300 301 301 300 300 300 300 300
Wind_Speed
26 26 24 23 22 22 21 20 20 21 20 22 21 20 19 17 17 17 17 13 13 12 13 13 13 14 14 14 14 14 10 3 5 5 5 9 5 7 9 9 6 5 2 4 6 6 9 7 5 3 3 4 2 4 2 3 1 3 5 6 7 5 9 7 7 6 5 7 10 12 13 11 10 9 4 3 4 1 7 7 6 4 5 7 6 1 11 15
27 26 25 23 22 22 21 20 20 21 21 20 21 20 20 21 20 17 17 15 14 12 12 13 13 14 15 15 15 12 5 3 5 8 13 8 10 5 6 11 3 3 3 2 5 6 7 9 5 2 4 4 2 2 3 2 2 5 3 6 7 7 2 4 1 5 2 6 11 12 13 11 9 13 8 8 9 7 7 7 7 7 7 8 8 6 12 15
26 27 24 23 22 22 22 20 21 20 20 20 19 19 19 19 18 17 16 16 15 12 12 13 14 14 15 15 14 11 3 3 1 13 14 13 11 9 10 9 6 8 6 6 8 8 8 8 7 3 5 6 6 5 5 3 4 4 4 5 6 4 5 4 3 5 4 4 11 11 11 9 9 11 9 9 9 10 10 9 10 10 11 10 10 11 11 13
27 26 26 24 23 23 21 21 20 20 20 20 19 19 17 17 17 17 16 16 15 13 13 13 14 14 14 15 14 9 2 5 9 5 8 13 12 13 12 6 6 5 4 4 6 8 5 6 6 6 5 7 5 3 8 3 4 3 4 5 2 6 4 3 4 5 3 4 10 11 10 8 9 8 10 8 8 10 9 10 11 12 11 13 12 14 13 13
24 25 25 24 24 24 22 21 20 20 19 19 19 18 17 17 17 16 16 15 14 15 13 13 14 13 14 15 15 6 5 1 6 10 8 14 15 16 14 10 7 6 7 1 2 6 5 5 2 5 5 7 5 6 8 7 2 1 6 5 4 2 2 5 4 6 2 6 7 9 12 10 7 4 11 11 9 6 9 10 10 11 11 15 14 14 13 15
26 26 25 24 24 24 21 21 20 20 20 19 18 17 17 17 17 17 16 15 14 15 13 14 13 14 14 13 8 6 9 8 1 2 3 17 17 15 14 10 10 7 5 7 7 5 8 2 5 5 5 7 8 7 9 5 4 6 4 0 3 4 3 2 4 2 1 3 8 9 10 7 10 7 10 10 12 5 6 8 5 6 4 16 15 15 14 15
26 25 24 24 24 24 22 21 20 21 22 20 18 18 17 17 17 17 16 15 14 15 13 15 14 14 14 11 6 8 12 7 2 3 1 6 11 11 11 9 9 8 8 8 10 7 8 7 6 6 7 7 6 9 7 6 5 7 2 4 3 4 3 2 3 2 1 2 6 6 7 8 10 9 9 11 10 8 7 6 5 6 9 14 15 15 16 17
27 26 24 24 24 24 22 22 21 21 22 21 19 18 18 17 17 17 16 16 15 14 15 15 15 15 15 10 10 8 9 10 1 1 2 7 10 11 8 8 9 8 9 12 9 11 9 9 8 5 6 7 1 10 6 6 9 9 4 4 4 2 3 2 2 3 2 1 4 3 7 8 12 3 6 11 11 7 6 4 4 5 8 10 13 13 14 14
25 26 25 24 24 23 22 22 21 21 21 20 19 18 19 17 17 17 16 16 16 15 15 15 16 16 16 9 9 8 13 6 3 5 5 7 10 11 13 8 9 10 11 9 9 10 8 9 9 7 4 9 6 8 7 8 7 10 2 7 5 3 4 3 3 3 4 2 3 5 8 3 3 3 7 8 12 8 9 6 5 6 7 10 12 13 13 13
26 26 25 24 24 23 22 22 21 20 20 19 18 20 21 19 17 17 16 16 16 16 15 15 16 19 7 8 9 10 1 7 5 6 5 6 8 13 12 9 13 11 7 10 10 12 12 7 9 7 4 7 1 4 4 11 2 7 8 6 6 5 3 2 3 5 3 3 5 7 7 3 1 3 6 11 6 9 7 6 5 5 8 9 9 11 11 12
27 25 24 24 23 23 23 22 21 21 20 19 20 20 21 18 17 16 16 16 17 16 15 16 16 12 8 10 12 10 2 3 4 7 6 7 11 13 11 8 13 11 12 7 10 12 9 6 4 4 1 5 3 3 3 1 2 5 10 8 6 4 2 4 3 5 5 3 6 4 4 1 3 4 6 8 5 7 9 9 8 6 6 8 9 10 9 10
28 26 26 24 23 23 24 23 21 20 20 20 19 20 19 18 17 16 15 16 17 16 17 16 17 8 6 10 11 5 2 4 6 6 7 8 7 2 3 6 12 12 11 9 9 6 4 2 5 7 3 1 5 5 4 1 3 7 10 7 6 6 5 5 5 6 5 3 6 2 3 6 7 9 11 7 5 6 8 9 9 10 8 8 9 8 8 9
28 26 26 25 24 23 24 23 21 20 20 19 19 17 17 17 17 16 15 16 16 17 17 15 11 5 8 10 7 3 0 5 6 8 5 4 5 4 3 1 4 3 4 7 5 3 1 2 5 10 4 4 1 2 3 3 2 1 7 6 7 6 7 7 4 5 5 4 6 3 5 8 14 16 8 8 8 6 7 8 9 8 9 8 8 8 8 8
26 26 25 24 23 23 24 24 22 21 20 19 18 17 16 16 17 16 16 14 17 15 13 13 7 4 7 9 3 2 3 4 8 8 7 4 8 3 5 4 3 1 2 2 2 2 2 1 3 3 2 4 2 1 6 3 5 6 4 4 7 7 7 10 7 8 6 3 5 4 6 5 10 14 9 7 7 8 8 9 9 9 9 8 8 8 8 10
27 26 25 24 24 23 24 24 23 23 22 20 18 17 17 17 17 17 16 14 15 13 12 12 6 3 7 6 5 3 3 4 8 8 8 8 9 6 5 3 5 2 2 2 2 1 2 3 4 3 3 1 5 6 3 5 6 6 6 8 7 9 5 8 5 10 6 4 7 5 7 9 6 10 7 7 6 6 8 8 9 9 9 9 8 9 9 9
27 27 25 25 24 24 24 23 23 24 23 22 21 18 17 15 16 16 14 13 15 15 11 10 7 4 6 10 3 3 4 6 8 9 6 3 6 5 8 7 4 2 3 3 1 2 4 7 4 1 5 2 6 7 6 5 6 8 10 7 9 7 6 6 6 6 3 8 7 10 5 5 7 6 5 4 7 7 8 9 9 9 10 10 9 8 9 9
27 26 26 25 24 24 24 24 23 24 23 20 20 19 17 16 15 16 14 16 11 9 10 6 8 3 6 2 5 7 7 6 5 6 6 1 1 9 10 8 4 5 5 4 2 4 5 7 2 2 3 5 7 8 8 8 8 8 7 7 8 13 8 6 6 5 5 7 9 10 7 10 5 7 5 5 8 9 9 9 9 9 8 9 8 9 9 10
27 27 27 25 25 25 25 24 24 24 24 23 21 20 18 17 17 16 14 12 9 7 5 1 7 0 9 7 9 10 10 6 6 8 6 1 4 10 6 4 3 10 8 8 1 6 5 4 4 6 6 8 10 10 11 11 10 8 9 8 3 6 10 7 7 10 9 7 7 11 12 13 12 6 8 8 8 9 10 10 9 9 10 9 8 9 10 10
28 28 27 26 25 25 25 26 25 28 26 25 24 22 21 18 11 9 12 12 12 8 6 10 17 16 7 16 6 10 8 8 8 11 7 8 5 3 2 4 9 12 7 6 4 6 7 3 4 6 10 11 11 12 10 5 8 10 11 10 7 9 9 9 4 2 7 11 9 11 10 14 14 12 7 10 9 9 8 7 6 6 6 7 9 9 9 9
28 28 28 27 26 26 27 27 28 29 30 23 18 16 14 13 10 9 10 13 15 20 2 16 14 2 6 15 13 7 8 9 8 6 10 4 9 8 5 8 3 5 8 7 5 6 1 8 9 11 9 11 13 13 8 3 4 6 11 12 11 9 5 5 6 4 1 2 11 11 13 13 12 12 11 11 10 9 8 9 8 8 8 9 9 10 10 10
28 28 28 27 27 27 28 28 28 28 26 17 21 19 16 23 22 16 19 14 11 2 7 20 21 5 4 10 12 17 12 6 6 8 10 6 8 13 7 8 9 8 6 3 7 1 1 8 10 11 12 12 13 13 5 3 4 7 8 9 9 5 6 3 4 3 1 4 7 11 11 14 13 12 10 7 10 11 12 11 11 12 11 9 10 11 11 10
29 29 28 27 27 27 29 28 28 26 22 15 18 13 7 16 5 2 19 13 7 2 5 19 15 5 4 7 9 3 10 7 7 11 4 7 11 11 6 8 12 10 7 7 7 4 5 10 10 10 6 7 5 4 1 4 5 2 6 6 7 6 4 3 5 3 4 2 6 3 7 12 14 13 12 13 13 12 12 13 13 12 12 11 11 11 11 10
30 29 29 28 28 28 29 29 28 26 15 15 17 11 2 3 6 17 3 12 10 3 11 19 14 8 8 7 4 2 12 11 12 11 10 5 13 8 11 8 12 8 10 11 9 7 8 9 7 6 6 6 4 5 6 6 5 5 5 6 7 2 5 4 4 5 4 4 2 5 6 10 13 12 13 13 14 13 12 13 14 12 13 13 11 11 10 11
30 30 29 28 29 26 27 27 26 20 12 17 16 12 4 5 6 9 11 7 11 5 7 16 12 9 10 11 7 6 13 9 11 14 10 8 12 8 10 12 12 9 11 13 12 10 7 1 5 3 6 9 8 7 9 8 9 8 7 6 6 4 3 3 3 2 3 3 1 7 8 11 11 12 10 13 15 14 11 10 9 9 8 7 4 3 6 10
29 30 29 29 28 30 27 28 16 14 13 15 16 13 8 6 3 8 8 9 6 4 5 2 4 6 8 5 8 9 8 5 6 13 11 12 11 8 9 4 7 10 12 14 12 10 5 1 1 1 6 9 10 9 11 9 9 8 9 8 4 3 5 6 7 5 4 4 7 5 4 10 9 13 14 8 5 8 9 10 12 12 10 9 11 12 9 6
29 30 29 30 31 28 31 18 15 15 17 16 14 13 9 4 6 4 3 7 10 6 7 13 6 8 8 8 10 5 7 9 4 6 11 3 2 6 6 5 2 11 12 14 9 2 1 2 2 6 6 7 10 10 11 11 9 9 6 12 5 1 4 6 6 3 3 5 3 2 9 6 3 7 11 10 7 9 8 11 12 11 10 11 12 11 10 10
30 29 29 31 32 33 22 11 18 19 14 12 14 7 5 3 4 3 6 5 9 8 13 4 7 4 3 12 13 10 10 10 5 4 8 1 7 2 10 8 3 3 5 6 2 5 4 4 3 0 6 7 7 8 8 12 8 8 3 2 6 6 6 6 6 6 3 4 3 3 5 7 8 7 4 5 5 8 10 11 11 10 11 12 11 11 10 10
30 29 30 31 34 31 10 14 23 22 16 7 12 11 3 3 2 4 3 7 7 13 10 5 4 2 2 13 13 13 3 17 7 8 0 4 2 4 5 12 12 10 7 7 8 3 6 6 5 6 4 5 9 4 5 9 9 1 2 2 6 6 6 7 6 4 2 3 4 6 5 2 8 8 4 4 5 7 9 10 12 12 12 12 10 9 8 8
30 30 30 31 33 11 10 14 20 21 12 4 12 8 4 4 4 5 6 7 5 7 4 12 1 7 6 12 13 10 5 12 10 10 6 2 2 2 9 10 10 11 3 4 7 4 2 2 5 6 8 8 3 5 6 5 12 2 3 4 6 4 2 5 4 5 2 4 8 7 10 5 10 7 7 4 6 10 10 9 11 10 11 10 8 7 6 5
31 29 31 33 20 9 12 13 16 15 8 7 9 8 7 4 5 8 8 7 10 7 10 6 11 15 14 15 14 10 11 3 3 7 9 9 7 1 3 5 9 10 5 4 8 4 3 1 2 1 4 3 4 6 4 7 5 8 8 7 5 3 2 2 2 4 3 7 10 4 8 5 6 6 8 6 6 8 9 9 3 6 5 4 3 5 4 4
30 32 32 32 18 12 15 17 17 6 8 6 11 10 7 3 10 9 9 3 11 6 4 11 13 16 19 20 14 13 10 8 9 16 12 8 7 3 8 6 4 6 3 4 4 5 5 4 3 2 1 3 3 6 6 1 1 4 3 4 5 2 3 3 4 3 6 8 2 2 4 2 8 5 5 4 4 1 2 3 1 2 4 5 4 4 3 3
31 30 32 23 13 11 16 18 16 10 7 9 13 10 9 12 6 11 7 10 10 9 14 14 18 18 23 19 9 14 12 10 11 16 15 12 11 11 13 9 10 6 6 9 7 5 4 3 3 3 2 1 5 6 4 4 1 3 6 7 7 4 3 5 5 7 8 7 3 2 3 2 13 11 4 5 5 2 3 3 3 2 4 4 4 4 3 1
31 30 33 13 11 12 4 9 12 9 11 9 8 7 11 11 11 12 7 12 4 18 11 14 20 21 20 20 14 15 11 12 13 14 14 13 11 10 12 9 13 6 7 9 7 7 3 4 4 3 4 4 5 8 4 3 5 6 10 8 8 8 6 7 7 4 5 2 3 3 2 5 7 7 17 18 15 3 1 3 3 2 1 1 2 2 1 2
30 31 21 9 9 4 5 11 11 14 15 9 8 9 8 10 10 13 11 11 5 2 16 16 18 18 21 18 16 16 12 10 16 13 16 12 13 12 10 6 17 8 5 11 9 9 7 4 8 11 4 8 5 3 3 2 10 11 3 7 6 5 3 6 6 8 5 1 3 4 1 4 3 1 3 4 3 1 1 1 1 0 2 2 2 3 4 4
31 26 11 8 7 2 8 10 10 13 11 10 8 11 13 11 10 17 13 10 6 12 16 18 20 20 18 14 13 16 11 7 13 13 15 14 15 13 15 14 16 10 8 10 5 5 12 4 4 6 2 2 9 1 2 2 4 1 1 2 2 6 2 6 1 1 2 2 2 2 5 4 6 6 5 5 5 4 3 4 4 4 3 2 3 4 4 3
26 12 9 9 10 5 8 7 12 11 10 9 11 9 13 13 11 13 9 11 10 13 18 20 16 17 16 11 10 19 1 5 16 11 10 14 12 13 12 10 12 14 12 10 6 7 5 8 2 3 1 1 2 1 2 2 5 5 3 5 3 5 3 3 1 2 1 2 6 5 4 9 7 13 13 7 6 5 4 5 5 6 5 4 4 4 4 4
15 15 13 11 9 8 9 9 9 11 9 9 13 14 15 10 4 11 7 15 14 20 21 19 14 16 18 14 14 21 10 9 13 11 10 11 11 14 15 13 15 15 13 9 3 2 9 4 2 2 4 1 2 2 2 3 0 4 3 3 2 2 3 1 6 2 3 6 4 5 8 8 6 5 4 7 6 7 6 6 5 5 5 6 5 5 5 4
15 11 9 16 10 10 11 12 13 8 6 9 15 17 9 8 1 6 12 19 17 17 14 14 9 14 15 12 13 18 14 14 14 12 9 15 6 14 13 10 15 14 16 5 4 3 3 3 2 3 2 1 1 2 3 1 1 1 1 5 4 3 4 2 2 5 4 6 7 6 8 8 7 7 2 3 8 9 7 4 4 5 6 7 7 7 5 4
11 12 11 12 9 10 11 13 11 9 8 10 12 18 8 4 9 11 15 16 14 17 15 12 12 13 13 14 13 17 16 14 16 12 10 10 9 13 16 10 11 14 13 6 7 3 1 3 2 1 2 3 1 2 7 4 2 3 1 0 2 2 4 4 4 2 3 7 4 5 6 5 6 9 9 6 2 4 5 5 5 6 6 6 6 6 6 5
13 8 6 10 10 12 14 13 9 8 8 14 14 12 7 7 2 12 16 20 13 13 11 14 12 12 13 13 18 15 15 15 15 11 11 8 9 6 15 12 9 13 14 5 3 4 3 3 2 2 2 2 4 4 5 9 8 3 3 3 2 1 1 3 2 5 3 4 6 6 5 3 4 8 10 11 11 2 3 1 2 2 2 3 3 4 4 5
9 5 8 12 15 15 15 11 11 13 12 11 11 8 10 8 6 5 13 9 6 6 4 12 13 13 13 14 15 14 11 14 13 12 12 10 15 5 11 14 11 14 8 5 3 4 3 2 4 5 4 5 3 4 3 4 1 5 8 9 11 8 5 4 4 2 0 3 5 5 7 4 1 1 4 5 3 4 3 1 2 2 3 2 1 1 4 5
13 9 8 16 18 21 18 15 10 11 8 10 10 8 8 10 11 10 5 2 7 6 3 8 12 11 12 12 15 14 12 12 11 11 11 11 15 12 7 13 11 15 13 9 9 2 1 3 6 5 3 4 3 2 3 2 2 0 1 2 2 4 4 4 7 3 0 3 4 1 4 3 3 2 2 1 2 1 1 1 3 2 3 2 2 2 1 1
7 3 7 23 19 22 16 11 10 12 6 5 8 8 7 6 10 9 9 6 7 2 5 6 10 10 7 10 14 12 19 9 16 15 13 14 8 12 6 16 14 15 10 4 7 4 3 3 5 4 4 2 2 2 3 1 1 1 3 2 1 8 10 7 4 1 4 4 3 4 6 4 1 1 1 2 2 2 2 3 4 3 3 3 3 3 4 3
3 8 9 9 10 10 13 14 16 12 7 6 10 7 2 4 12 10 11 12 8 8 9 6 7 8 9 6 11 13 16 4 8 11 8 9 5 4 13 14 20 10 13 10 11 8 4 3 6 6 3 2 1 1 1 0 1 3 5 7 7 2 1 2 1 1 3 6 8 6 10 6 3 1 2 2 3 3 4 4 5 4 4 3 3 3 3 3
4 4 6 10 11 9 11 7 15 12 15 13 14 12 9 4 1 8 13 12 7 8 8 7 10 8 5 5 9 10 15 13 4 11 3 7 6 1 10 13 18 12 11 9 8 9 2 3 8 7 9 10 10 11 11 9 11 6 2 2 7 9 7 4 6 3 8 4 7 5 8 10 1 2 3 4 3 3 3 3 3 4 4 2 2 3 5 4
2 8 4 8 4 4 6 5 2 9 11 11 8 8 12 8 2 2 3 9 2 9 4 7 6 10 10 12 10 12 13 13 6 6 8 6 3 1 1 10 15 9 5 9 13 11 4 2 5 7 9 9 9 4 2 7 5 5 3 7 7 9 10 7 2 5 9 2 5 7 11 14 10 4 6 5 4 5 4 5 5 4 4 4 3 3 4 4
5 3 7 12 5 5 3 3 6 8 13 17 9 12 13 13 8 5 4 6 5 6 5 8 11 12 11 15 13 13 14 10 5 6 12 11 4 4 2 2 9 6 11 8 9 5 2 5 9 10 13 12 11 9 10 13 11 12 14 13 14 13 10 9 11 12 7 8 9 6 12 14 16 14 5 6 3 4 4 4 4 2 2 3 4 3 2 2
1 2 4 2 3 16 13 12 12 12 12 19 7 11 17 15 13 8 4 3 6 6 8 2 11 14 17 17 13 8 12 10 7 6 9 5 8 5 6 3 2 2 1 6 7 5 5 7 10 11 12 12 12 7 8 11 13 12 17 16 17 16 14 13 13 17 12 8 11 13 15 16 16 13 8 7 7 7 7 5 1 1 2 4 4 5 6 6
2 2 2 4 1 0 3 6 16 15 19 21 8 15 17 17 16 13 8 7 6 6 8 7 14 16 17 15 12 9 15 8 8 9 4 5 8 7 4 4 1 2 3 7 5 2 3 6 9 13 13 13 11 2 3 9 8 9 10 11 6 11 14 15 13 17 19 13 11 17 18 18 15 12 10 11 6 2 4 4 2 1 4 6 7 6 5 5
1 1 1 3 5 5 8 12 14 16 17 19 8 16 16 19 20 12 8 9 7 12 7 8 14 15 15 15 13 10 14 16 13 9 5 11 3 5 6 7 7 5 3 7 6 2 3 4 11 5 8 9 7 3 1 2 5 9 10 10 9 10 11 13 13 14 15 13 15 16 17 16 12 9 8 1 4 4 3 2 4 6 6 6 7 7 8 9
2 2 3 3 3 4 7 7 10 15 13 18 10 12 13 18 18 14 7 2 11 13 13 15 16 15 14 15 15 13 13 14 11 16 16 17 12 12 10 4 11 8 5 2 2 1 3 1 2 4 7 8 7 6 4 2 1 2 4 4 7 11 11 9 12 12 14 14 15 17 16 12 14 13 11 6 6 7 6 6 6 5 5 6 8 10 10 10
1 2 2 4 3 4 8 7 6 9 11 15 14 16 13 19 14 14 7 2 4 3 9 10 13 12 11 14 18 14 7 6 5 9 11 4 5 7 4 8 14 13 7 6 4 6 7 4 5 7 9 9 9 9 8 4 1 5 8 10 13 12 13 13 14 16 17 16 15 13 14 15 17 15 12 12 11 11 11 11 7 4 7 10 11 12 15 15
Wind_Direction
196 189 185 183 183 185 186 183 172 168 167 175 177 175 173 165 165 163 164 163 162 167 168 158 148 145 144 142 139 141 163 173 153 168 192 225 139 249 282 277 27 48 38 339 306 287 297 267 264 149 246 232 138 221 123 213 295 227 213 224 215 234 206 147 203 176 85 148 144 166 176 177 160 164 156 181 196 344 138 181 122 90 91 82 111 38 132 134
200 190 183 183 182 182 184 181 172 169 169 171 176 176 174 173 170 161 158 154 165 172 169 159 150 146 145 147 148 159 189 131 184 224 228 124 171 213 244 270 202 114 122 291 271 279 288 283 251 232 251 232 137 207 169 173 203 208 224 230 228 216 53 6 15 102 191 161 162 169 179 187 175 163 161 191 187 185 175 196 179 171 141 116 122 135 149 149
194 189 182 181 181 181 181 177 174 172 172 171 174 176 174 172 170 162 156 157 166 170 169 161 154 152 150 149 156 166 160 67 347 238 239 152 155 207 230 245 270 156 201 252 288 274 272 283 325 283 231 245 172 198 210 155 200 225 268 213 243 97 77 59 349 88 18 119 155 161 180 202 154 168 147 209 187 191 206 189 191 198 171 163 139 158 153 167
197 185 182 180 180 179 178 176 174 175 172 171 175 176 174 170 167 162 153 156 165 167 167 162 157 154 152 151 157 177 167 64 245 213 229 160 173 195 209 202 239 224 194 248 283 287 283 276 274 279 253 247 162 221 187 169 209 134 228 221 314 125 146 108 56 59 44 326 161 167 160 189 151 165 167 195 204 202 216 206 194 198 182 163 154 162 164 175
198 186 180 178 179 178 176 177 175 174 175 172 173 175 171 167 165 161 154 152 160 167 169 159 158 157 152 158 171 186 122 104 240 191 161 170 179 195 204 194 197 195 205 253 249 250 258 247 275 263 262 222 195 189 218 150 256 220 224 29 326 343 129 99 95 62 52 326 171 158 164 186 142 141 196 195 209 203 209 208 196 192 189 157 157 164 164 173
195 187 179 177 178 176 175 175 175 174 176 174 172 170 170 167 164 162 158 152 158 167 166 160 157 157 156 161 170 217 160 207 6 150 134 174 188 185 197 183 188 169 169 224 233 225 219 232 223 223 222 238 196 203 186 174 163 220 168 102 24 8 49 91 125 103 352 151 157 166 182 138 175 191 198 206 214 67 40 31 73 65 173 153 151 155 167 174
193 184 177 177 177 177 172 174 174 176 177 174 172 168 166 165 163 160 157 154 159 164 162 162 157 152 158 154 177 210 202 240 123 112 148 160 177 182 190 156 156 158 184 211 224 225 214 205 211 222 234 246 206 213 149 160 194 256 177 128 95 13 57 49 84 111 14 179 173 179 151 177 183 204 184 212 216 82 58 38 55 98 101 135 147 165 172 180
182 180 175 176 175 173 170 173 176 178 178 174 171 165 164 164 161 159 156 159 162 163 162 162 157 157 155 163 159 198 206 240 45 95 40 157 165 185 144 134 155 171 184 212 212 222 219 213 199 213 245 233 164 217 153 175 200 215 213 156 86 63 75 82 92 150 171 360 14 134 179 203 193 195 142 216 214 129 102 87 108 131 144 155 159 169 175 183
182 173 172 174 172 169 169 172 176 178 175 171 166 159 163 161 158 157 160 159 164 164 164 160 163 168 186 171 189 187 219 204 82 131 139 123 146 142 135 144 171 179 206 207 226 238 224 215 217 200 231 233 269 248 164 199 201 222 148 123 126 89 86 113 131 152 165 142 202 191 201 101 59 26 234 212 213 152 131 115 110 145 165 173 172 175 178 184
180 172 171 171 170 167 167 171 174 176 171 167 162 163 165 158 156 157 157 161 164 162 167 162 167 183 197 193 197 217 175 99 115 116 122 111 120 136 169 155 167 191 201 216 219 230 219 224 217 199 310 292 206 264 357 226 4 167 127 135 133 111 115 161 172 149 148 162 184 204 186 179 61 222 231 204 136 123 159 160 135 162 178 178 178 179 183 186
177 171 169 169 168 166 166 170 171 169 165 163 164 161 165 155 154 154 158 161 165 164 166 165 178 182 200 196 194 209 86 160 107 117 134 132 134 151 175 157 175 176 203 220 222 222 226 246 142 72 269 270 172 199 210 323 352 163 125 115 112 131 123 132 147 145 164 144 185 258 167 123 150 210 246 123 120 166 180 184 180 194 180 185 184 182 184 191
173 167 168 168 169 166 167 169 165 161 159 162 160 162 159 152 151 153 158 161 168 165 168 171 179 197 205 206 219 190 326 67 135 131 131 161 138 99 52 164 176 181 189 207 216 226 301 222 195 201 206 214 224 90 204 168 275 156 162 164 143 152 155 173 160 168 218 131 183 248 164 216 189 221 217 126 139 186 194 190 188 198 199 184 189 185 186 192
168 166 165 166 167 167 165 163 158 158 158 159 156 161 152 149 148 151 156 162 167 168 168 171 178 239 197 206 206 60 345 121 120 123 125 73 100 80 44 26 178 202 216 224 215 220 215 314 234 218 228 292 162 217 77 164 117 215 222 210 157 185 206 166 116 150 210 106 181 209 229 212 205 215 153 136 139 152 195 200 190 196 202 195 186 192 195 193
167 163 163 163 165 163 160 156 155 157 154 151 150 148 143 144 143 150 157 161 160 160 165 163 192 245 210 217 105 53 95 120 128 141 149 163 127 101 123 73 63 54 320 85 71 321 163 344 273 296 26 281 223 184 178 99 164 195 175 274 210 183 205 153 173 158 192 111 175 237 251 245 179 192 143 138 149 159 187 205 200 200 197 196 192 195 200 196
163 160 159 162 164 158 154 154 158 154 148 140 138 138 138 145 146 149 156 148 156 153 151 162 213 202 210 193 83 69 335 141 168 174 158 174 136 109 104 121 83 42 63 97 118 187 170 179 188 203 201 68 117 179 162 179 186 200 171 211 226 221 133 146 149 174 196 147 198 206 248 261 112 146 133 144 163 185 207 201 204 203 201 198 197 202 204 203
160 157 158 160 160 155 151 153 153 149 143 143 136 133 133 135 145 148 153 147 152 147 150 166 201 239 225 209 136 110 170 179 192 157 167 185 163 124 143 120 136 116 172 69 163 154 172 188 208 332 106 157 199 202 186 166 198 207 214 189 203 210 159 157 186 173 330 146 189 210 265 254 139 124 141 163 177 187 208 214 207 203 204 203 204 205 209 207
158 154 157 159 157 152 149 149 144 142 143 138 127 126 124 130 140 144 149 138 142 155 162 169 177 216 218 67 123 191 182 161 77 132 155 268 78 129 133 138 140 114 113 126 177 174 156 185 93 204 217 212 209 207 192 206 193 204 209 238 196 198 180 202 110 206 165 196 189 217 239 256 86 158 156 169 202 196 210 215 215 209 209 207 205 208 209 210
156 155 156 157 154 150 148 144 141 140 139 129 129 128 124 130 134 139 136 142 139 165 178 122 154 304 256 127 197 199 161 137 177 151 149 111 177 151 146 134 131 135 137 122 184 189 173 167 190 205 180 212 210 208 205 204 202 193 187 214 181 235 224 207 179 161 177 210 233 199 229 247 253 143 171 177 180 198 214 218 226 225 217 209 209 212 214 216
155 153 153 155 152 148 145 143 141 141 133 129 125 119 127 127 142 144 146 151 150 148 183 179 177 195 220 176 134 111 140 135 126 145 152 151 161 152 97 106 149 139 152 161 156 194 181 165 188 228 207 199 206 214 208 238 217 200 181 204 218 203 208 227 81 113 202 192 215 212 217 234 240 239 176 171 182 193 203 211 222 228 230 224 216 216 219 220
153 153 153 153 151 147 144 141 142 140 137 134 136 137 135 143 142 155 172 189 198 174 210 175 189 131 54 145 143 90 100 146 137 186 150 154 147 166 117 151 135 176 147 186 149 205 133 194 195 205 211 205 208 216 231 36 293 185 196 210 222 222 205 76 78 71 296 231 222 224 238 248 251 242 227 177 179 198 212 215 218 223 224 221 222 224 223 223
153 153 154 152 151 148 144 140 142 143 142 150 156 155 163 165 154 170 175 196 193 218 283 166 183 182 78 130 120 140 135 150 198 169 168 170 186 150 152 162 161 169 172 120 143 72 292 214 212 211 220 218 204 212 223 259 338 246 219 218 220 207 221 82 105 127 169 230 225 221 241 251 250 248 245 198 176 209 213 219 225 227 226 223 218 220 221 225
153 153 153 153 151 149 143 142 144 146 149 163 174 177 156 183 354 136 145 154 186 221 277 162 176 106 133 134 146 133 150 139 163 167 139 181 175 184 177 200 172 177 119 113 109 143 205 213 214 201 101 73 73 181 156 250 249 294 242 225 245 219 89 131 101 118 147 195 246 98 255 256 253 249 240 234 229 231 222 223 228 229 230 228 223 220 222 213
153 153 153 152 153 148 144 143 147 150 155 183 193 215 190 346 295 132 176 110 99 342 160 157 171 144 117 126 169 277 168 163 169 171 172 220 176 222 157 186 188 141 154 167 171 169 206 220 200 96 129 130 150 194 207 221 248 242 223 235 225 170 190 207 151 155 188 226 322 21 302 276 268 256 246 237 233 235 229 225 229 226 233 231 225 219 217 217
152 152 153 154 152 147 140 142 145 151 187 190 199 211 14 289 298 183 147 137 132 138 163 165 176 152 152 154 174 205 179 167 159 175 165 195 181 149 171 183 167 151 181 183 189 187 198 94 5 188 149 196 193 192 204 215 227 221 244 238 236 154 195 317 124 153 114 251 353 300 290 275 255 250 236 229 223 227 220 214 222 227 231 235 241 245 221 217
153 152 152 154 151 144 142 139 152 176 167 192 214 214 250 289 301 322 154 99 119 111 331 13 328 187 138 34 145 188 177 131 200 163 160 197 157 159 184 161 167 189 181 184 193 204 187 307 85 146 188 190 205 199 207 212 229 220 210 230 287 180 170 103 122 154 207 227 190 211 275 260 250 239 233 212 131 205 209 213 222 219 212 206 223 228 217 221
153 151 154 154 148 145 139 146 169 162 178 196 203 226 250 236 290 340 194 123 158 132 150 183 176 159 125 163 150 194 146 189 103 142 161 227 262 197 111 186 212 194 184 180 192 194 168 54 215 158 175 201 210 218 202 207 228 232 208 198 201 271 127 147 163 193 230 248 112 271 226 268 226 214 220 207 189 208 192 206 226 218 210 200 213 213 210 212
152 154 154 154 150 143 153 175 158 158 177 208 220 213 207 210 289 292 185 128 191 154 167 90 193 159 253 158 164 149 175 183 98 93 170 354 196 345 195 160 132 30 130 129 56 208 125 105 106 255 174 183 206 220 203 200 223 227 32 294 162 172 168 173 190 205 279 90 93 234 246 262 269 254 118 126 206 228 222 219 225 218 212 209 207 202 201 205
156 154 156 155 152 161 157 136 158 175 176 180 190 205 145 178 230 251 233 131 215 133 181 169 207 60 239 156 175 182 30 117 144 185 161 117 357 179 261 176 179 161 154 158 203 73 148 144 160 130 179 184 209 247 159 189 226 253 28 298 178 204 197 180 200 219 298 354 249 175 189 250 253 244 146 181 240 235 232 229 227 218 210 210 203 198 190 192
155 157 156 152 159 171 146 155 167 172 186 116 154 166 120 168 239 200 171 185 115 137 58 148 131 164 141 165 188 189 132 173 194 135 135 110 326 306 213 182 185 138 70 189 219 118 345 135 171 155 162 196 113 25 343 192 214 134 145 75 75 59 112 200 222 230 193 223 247 206 179 234 261 246 217 171 237 249 247 235 230 221 206 194 193 182 173 169
157 157 153 154 152 125 150 154 170 175 160 143 125 128 140 186 170 201 154 224 137 169 180 113 185 171 169 167 186 180 177 142 61 123 152 176 165 302 32 313 124 127 157 62 68 37 81 105 209 75 189 65 102 41 40 10 39 129 150 110 98 109 160 185 235 225 222 237 239 185 179 242 272 228 225 194 215 218 234 240 188 91 99 133 142 159 171 184
157 156 158 159 165 161 147 160 173 156 136 155 132 142 165 179 183 173 178 163 144 91 105 156 166 159 175 177 180 183 186 141 149 146 158 175 162 177 140 120 71 105 102 139 87 119 100 93 164 75 32 162 90 96 41 353 145 168 157 158 144 119 150 178 196 205 230 242 133 17 195 209 228 234 240 238 57 53 235 255 99 168 157 166 163 167 163 178
156 159 158 164 162 149 162 170 160 136 135 152 146 155 172 158 212 199 167 126 185 173 183 167 172 173 182 183 168 173 174 151 161 166 164 177 170 177 185 178 171 150 188 180 173 131 108 139 96 84 243 214 166 109 61 45 278 266 180 179 196 195 169 209 184 204 215 240 95 85 97 231 241 247 300 279 303 251 237 245 290 224 168 143 147 143 146 173
156 157 159 169 146 174 148 112 118 131 145 164 165 175 171 164 183 200 163 166 181 148 188 169 167 174 175 177 182 169 161 172 166 185 165 173 177 188 196 204 178 187 182 173 147 165 142 113 164 125 160 236 220 171 129 175 204 211 202 188 195 209 195 217 204 218 232 82 246 91 201 275 302 267 235 255 261 306 169 200 184 193 196 166 134 135 163 207
152 153 162 173 167 161 106 132 141 141 150 174 172 170 184 179 195 197 169 186 115 162 148 166 161 164 171 188 176 164 168 174 167 177 179 172 186 182 195 216 181 185 205 155 181 175 173 200 208 166 191 155 209 269 169 201 173 200 229 208 213 227 211 213 202 207 214 227 105 245 176 235 189 223 3 262 289 72 229 123 57 338 281 282 308 287 270 253
149 155 143 133 176 141 134 129 139 155 152 163 166 186 177 190 191 183 184 162 142 159 153 155 157 164 177 189 166 172 172 144 183 168 185 177 191 191 185 190 188 185 146 155 173 169 204 211 55 12 17 128 180 129 79 96 155 178 327 11 252 229 231 238 343 323 196 131 161 166 228 285 235 1 236 210 239 240 198 215 188 234 219 211 257 249 246 235
145 158 132 166 184 165 150 140 147 165 170 168 162 191 196 189 185 185 187 129 146 153 146 148 152 169 171 182 163 178 152 177 178 175 190 197 192 199 183 181 186 188 173 188 130 184 166 202 76 135 127 141 57 27 102 277 195 180 176 209 198 3 79 102 107 116 22 305 263 159 240 252 275 271 272 230 194 214 188 200 198 211 212 190 234 241 228 207
155 150 167 172 196 150 155 146 149 170 181 188 175 186 200 191 251 179 125 154 156 142 147 155 178 172 179 178 175 183 164 159 172 184 188 190 207 205 188 192 180 185 202 171 158 248 177 126 33 174 157 60 51 32 66 43 325 92 181 203 54 299 357 213 242 145 226 246 253 167 222 248 217 281 204 206 197 230 198 185 186 198 195 211 224 223 207 188
153 158 149 178 174 148 154 148 151 173 193 198 194 201 190 192 147 128 143 122 142 151 158 166 156 191 179 173 175 175 161 176 170 190 191 179 234 187 194 186 177 189 188 192 197 185 168 134 101 356 25 90 170 194 115 109 58 5 158 343 213 187 224 184 257 230 213 227 243 212 220 248 240 228 179 183 229 232 222 171 167 197 202 212 215 213 178 152
129 145 158 182 136 152 152 146 153 159 189 200 204 208 178 190 129 146 150 137 148 159 169 176 153 196 185 183 170 177 164 191 161 193 179 179 214 172 195 171 175 188 188 140 200 117 200 205 105 34 98 120 84 202 193 166 187 132 14 322 42 6 249 189 200 295 246 249 240 248 172 247 187 230 247 248 105 228 220 164 208 218 214 203 200 186 165 166
143 148 162 147 144 147 149 150 148 167 200 205 203 207 140 115 178 154 161 147 160 171 183 169 179 159 190 185 167 172 177 187 167 184 207 152 208 141 200 180 167 178 184 181 190 153 169 357 165 107 297 150 172 206 209 171 159 172 194 193 193 236 358 337 263 222 224 244 241 264 245 236 213 198 211 223 246 19 77 133 206 261 228 185 184 156 156 165
161 140 142 156 155 150 147 150 161 185 201 227 217 186 157 160 131 177 156 133 113 353 198 176 167 179 169 166 176 166 162 187 178 188 197 174 191 195 217 190 161 164 135 116 112 183 146 206 170 138 142 211 159 33 37 25 200 190 184 194 188 179 191 193 235 77 148 226 248 246 255 265 69 350 211 231 45 65 49 14 313 314 283 250 255 157 153 161
158 156 163 163 159 160 152 156 191 191 206 202 193 160 153 118 151 162 135 70 146 151 326 163 169 166 167 180 167 164 162 186 185 191 199 201 197 223 157 188 154 142 162 176 188 45 274 82 109 159 172 164 59 88 45 105 107 94 4 232 225 228 221 215 225 189 349 241 25 313 336 250 65 41 342 11 34 11 40 17 286 300 307 300 245 227 213 122
172 98 107 159 171 169 160 165 181 195 208 178 89 62 119 152 148 160 141 163 148 122 147 170 168 153 181 173 172 167 167 178 180 194 192 206 201 197 139 179 141 158 154 97 63 206 63 140 100 79 65 64 150 117 164 150 145 272 237 224 258 205 205 223 249 100 198 137 227 239 246 252 94 73 288 289 320 310 279 236 256 276 286 287 255 216 191 176
75 132 118 183 203 205 172 170 177 200 194 110 180 144 345 136 148 154 173 171 170 166 172 143 155 192 157 176 168 172 171 154 206 201 203 194 172 86 154 166 155 163 169 181 175 176 164 185 150 140 137 131 97 147 110 252 158 214 218 203 207 237 161 54 79 287 265 187 209 215 246 254 179 64 275 277 244 248 251 221 202 245 257 254 240 200 166 158
120 48 105 162 198 219 206 197 188 180 179 169 169 151 157 134 225 174 165 170 155 170 152 171 165 129 126 146 172 177 180 192 147 214 229 182 162 311 158 165 172 173 195 173 166 138 161 146 169 173 174 175 186 190 193 189 198 188 220 169 181 207 192 177 235 208 250 176 200 231 255 261 33 229 203 210 202 242 228 214 184 221 262 291 208 191 170 180
197 127 129 136 197 229 284 5 337 170 146 163 165 170 156 142 140 4 162 160 105 154 164 111 132 145 140 161 169 182 187 204 200 177 191 168 107 129 95 176 180 178 88 130 139 153 131 198 202 204 211 214 211 213 88 94 82 189 173 195 204 205 213 218 338 233 225 171 219 212 244 264 248 209 191 201 201 214 210 208 213 216 211 233 247 187 176 183
323 141 153 149 87 253 230 223 218 180 177 167 171 167 175 163 134 157 272 169 206 150 124 151 157 161 171 171 178 186 190 166 54 163 189 173 82 93 64 142 169 58 124 122 167 106 140 191 183 197 229 232 225 197 166 169 184 193 196 208 207 201 197 197 207 226 209 232 245 212 234 247 252 247 186 196 203 235 231 219 209 211 197 185 207 183 161 221
67 347 354 287 179 175 181 218 203 191 169 175 170 159 174 156 156 164 172 335 135 181 147 61 183 182 170 181 161 176 181 190 164 191 168 144 112 112 104 15 125 32 197 148 176 186 172 196 183 192 222 244 251 255 189 190 201 199 206 206 207 201 192 195 216 227 226 218 239 237 229 238 253 249 232 210 191 213 218 215 160 99 139 163 181 200 209 216
43 330 332 322 66 47 172 117 175 182 175 176 170 174 175 168 173 170 164 144 162 195 205 172 193 187 178 175 167 171 172 169 205 183 150 146 147 135 116 90 272 97 189 154 155 5 195 214 174 188 212 223 245 220 168 198 209 224 223 222 188 185 199 203 215 222 225 227 230 245 248 245 244 255 245 249 227 181 103 93 83 207 208 191 198 212 219 228
5 65 156 27 35 109 120 128 169 182 185 180 171 188 182 175 173 149 153 152 161 194 192 207 181 185 176 179 179 183 184 196 180 153 127 124 129 175 163 173 140 128 186 169 155 332 224 200 165 173 209 223 214 71 63 256 213 220 222 222 194 172 186 201 218 235 236 244 245 250 255 261 264 269 263 175 108 84 99 121 195 215 207 197 201 216 229 234
80 330 299 156 102 132 127 137 162 181 181 188 194 174 192 184 180 156 140 150 183 174 183 196 171 176 176 183 191 202 186 200 180 167 162 154 175 187 161 196 141 145 165 102 128 32 200 350 83 134 211 227 200 196 172 151 355 286 245 182 170 174 191 196 216 218 221 224 237 248 255 261 265 251 249 212 180 172 190 203 219 201 185 186 199 212 224 229
153 244 280 303 100 152 147 154 156 151 192 191 190 174 182 184 177 146 135 172 42 13 185 184 166 157 172 185 198 205 158 96 99 151 156 94 71 101 83 141 144 142 153 169 166 168 183 165 167 165 208 227 205 202 176 133 124 256 233 208 196 197 196 201 211 214 213 211 227 230 236 243 249 256 249 233 208 198 204 212 218 211 211 198 200 209 217 225